COSMOS 1900 DEB, 43500

Orbit data source: Space-Track

COSMOS 1900 DEB, 43500 is space debris in LEO originally from a launch on Sat, 12 Dec 1987 UTC launched from the Tyuratam Missile And Space Complex (TTMTR). Debris objects in space refer to the collection of defunct objects orbiting the Earth. Examples of debris include non-operational satellites, rocket bodies, and fragments generated from explosions, collisions, or faulty payload assembly.

Loading next visibility...
Identifier
43500, 1987-101E
Orbit
LEO
Country
Flag of CISCIS
Related business
Manufacturer
Unknown
Mission
Spacecraft
Bus & Motor
Unknown
Mass
Unknown
Launch date (UTC)
1987-12-12 (38 years ago)
Launch vehicle
Unknown
Launch site
Tyuratam Missile And Space Complex (TTMTR)
Object type
Payload
Rocket body
Debris
Shape & HBR
Unknown
Radar Cross Section
Small (<0.1 m²)

Expand to show TLE details & history
Last TLE update: 1 week ago

TLE from 1 week ago
0 COSMOS 1900 DEB
1 43500U 87101E   25253.18193767  .00000784  00000-0  18324-3 0  9998
2 43500  66.0843  50.0947 0042806 260.0182 277.4558 14.60052960627685
Epoch: 2025-09-10T04:21Z
TLE epoch observation values (Epoch: 2025-09-10T04:21:59.414Z)
Latitude
2.66901°
Longitude
173.95693°
Altitude
690.983 km
Speed
7.513 km/s
True Right ascension
15h 15m 39s
True Declination
2° 39' 10"
Sunlit
Object was in daylight at epoch
Visualization orbit readout
Latitude
Unknown
Longitude
Unknown
Altitude
Unknown
Speed
Unknown
Apparent Right ascension
Unknown
Apparent Declination
Unknown
Sunlit
N/A
Visualization observer readout
Local Sidereal Time
09:19:09
Azimuth
Unknown
Elevation
Unknown
Doppler factor
Unknown
Orbital elements
Apogee altitude
721.691 km
Perigee altitude
661.167 km
Semi-major axis
7,069.566 km
Eccentricity
0.00428
Inclination
66.0843°
RAAN
50.0947°
Arg. of periapsis
260.0182°
True anomaly
276.96909°
Mean anomaly
277.4558°
Eccentric anomaly
277.21248°
Mean motion
3.65136 °/min
Orbital period
98.59 mins
BSTAR
0.00018324
Loading maneuver chart data...
Computing Atmospheric mass density...
Loading historical data...
Loading historical data...
Loading historical data...
Loading historical data...
Loading historical data...
Loading historical data...
Loading historical data...

Documentation

Showing up to 5 results
|